Regional Weather Roundup
Issued by NWS

Home | Current Version | Previous Version | Text Only | Print | Product List | Glossary On
Versions: 1 2 3 4 5 6 7 8 9 10 11 12 13 14 15 16 17 18 19 20 21 22 23 24 25 26 27 28 29 30 31 32 33 34 35 36 37 38 39 40 41 42 43 44 45 46 47 48 49 50
000
ASUS46 KSEW 210510
RWRWA

WASHINGTON REGIONAL WEATHER ROUNDUP
NATIONAL WEATHER SERVICE SEATTLE WA
1000 PM PDT MON OCT 20 2014

NOTE:"FAIR" INDICATES FEW OR NO CLOUDS BELOW 12,000 FEET WITH NO
SIGNIFICANT WEATHER AND/OR OBSTRUCTIONS TO VISIBILITY.

WAZ505-507>509-210600-
SEATTLE, TACOMA, EVERETT, AND VICINITY

CITY           SKY/WX    TMP DP  RH WIND       PRES   REMARKS
EVERETT        MOCLDY    55  52  89 S9        29.78S
BOEING FIELD   LGT RAIN  58  53  84 VRB3      29.79R
RENTON         LGT RAIN  56  54  93 CALM      29.80R
SEATAC AIRPORT LGT RAIN  55  53  93 CALM      29.80R
JBLM-MCCHORD   CLOUDY    54  54  99 S6        29.80S
PUYALLUP       NOT AVBL
JBLM-FT LEWIS  RAIN      53  53  99 SE5       29.80R
TACOMA NARROWS CLOUDY    55  51  86 S9        29.80R
$$

WAZ001-503-506-510-514-515-210600-
NORTH INTERIOR

CITY           SKY/WX    TMP DP  RH WIND       PRES   REMARKS
BELLINGHAM     CLOUDY    57  52  83 S10       29.74R
FRIDAY HARBOR  PTCLDY    51  50  96 CALM      29.74S
EASTSOUND      CLEAR     55  54  94 S7        29.72R
PORT ANGELES   MOCLDY    51  49  92 S3        29.73S
NAS WHIDBEY    CLOUDY    58  52  80 SE14      29.75R
BURLINGTON     MOCLDY   N/A N/A N/A S9        29.75S
$$

WAZ020-022-039-040-504-511-512-210600-
SOUTHWEST INTERIOR

CITY           SKY/WX    TMP DP  RH WIND       PRES   REMARKS
SHELTON        LGT RAIN  54  52  93 W7        29.77R FOG
OLYMPIA        MOCLDY    54  52  93 SW6       29.80R
CHEHALIS       CLOUDY    57  55  94 S7        29.80R
KELSO          MOCLDY    55  48  76 SE3       29.86R
VANCOUVER      MOCLDY    56  52  86 SE5       29.84R
SCAPPOOSE, OR  PTCLDY    51  50  96 NW3       29.83R
PORTLAND, OR   PTCLDY    56  53  90 CALM      29.85R
$$

WAZ021-516-517-210600-
WASHINGTON COAST

CITY           SKY/WX    TMP DP  RH WIND       PRES   REMARKS
FORKS          CLOUDY    55  54  96 VRB5      29.72R
HOQUIAM        MOCLDY    56  54  93 E10       29.77R
ASTORIA, OR    PTCLDY    57  52  83 S8        29.79R
$$

WAZ019-023-024-040-518-519-210600-
CASCADE MOUNTAINS AND COLUMBIA GORGE

CITY           SKY/WX    TMP DP  RH WIND       PRES   REMARKS
STAMPEDE PASS  NOT AVBL
TROUTDALE, OR  MOCLDY    53  51  93 E3        29.84R
THE DALLES, OR MOCLDY    52  50  93 NW3       29.84S
$$

WAZ026-027-041>044-520-521-210600-
EAST SLOPES

CITY           SKY/WX    TMP DP  RH WIND       PRES   REMARKS
OMAK           CLOUDY    52  50  93 S8        29.78R
WENATCHEE      CLOUDY    53  49  86 E6        29.78R
ELLENSBURG     CLOUDY    52  47  83 CALM      29.80R
YAKIMA         CLOUDY    50  47  89 CALM      29.82R
$$

WAZ028-034-035-210600-
COLUMBIA BASIN

CITY           SKY/WX    TMP DP  RH WIND       PRES   REMARKS
EPHRATA        CLOUDY    51  49  92 S3        29.79S
MOSES LAKE     CLOUDY    53  49  86 S10       29.81R
PASCO          LGT RAIN  55  53  93 SE13      29.83F
HERMISTON, OR  CLOUDY    53  50  89 SE10      29.85S
$$

WAZ036>038-210600-
NORTHEAST WASHINGTON

CITY           SKY/WX    TMP DP  RH WIND       PRES   REMARKS
SPOKANE GEIGER CLOUDY    54  43  66 W21       29.80R
SPOKANE FELTS  CLOUDY    57  43  59 W14G23    29.80R
FAIRCHILD AFB  CLOUDY    53  43  69 W15       29.82R
COEURDALENE,ID MOCLDY    55  48  76 W14G21    29.77R
DEER PARK      CLOUDY    56  45  66 W13       29.78R
$$

WAZ029>033-210600-
SOUTHEAST WASHINGTON

CITY           SKY/WX    TMP DP  RH WIND       PRES   REMARKS
PULLMAN        CLOUDY    53  44  71 W18G28    29.87R
LEWISTON, ID   CLOUDY    57  45  64 W20G30    29.83R HAZE
WALLA WALLA    LGT RAIN  53  50  89 E7        29.88F
PENDLETON, OR  LGT RAIN  50  48  93 E8        29.86F
$$



USA.gov is the U.S. government's official web portal to all federal, state and local government web resources and services.